Voltar ao catálogo

STARLINK-6327

AtivoComunicaçõesVLEO
NORAD 56522·PAYLOAD·🇺🇸 United States

Lançado May 14, 2023 de Cape Canaveral Space Force Station

Loading…

Próximas Passagens (próximas 24 horas)

TLE

AtualizadoSource: CelesTrak SupGP

Época: Sep 15, 2026, 03:13 UTC

1 56522C 23065V   26258.13451389 -.00014747  00000+0 -53429-3 0  2581
2 56522  43.0025 222.7184 0001072 269.4147   5.7137 15.27575715    14

Acompanhe STARLINK-6327 em tempo real com AllMySat

Download on the App Store